Weather History for Shannon, Ireland

Change the Weather History Date:

Monday, March 24, 2014

  Actual Average Record
Temperature  
Mean Temperature 46 °F -  
Max Temperature 53 °F 54 °F 62 °F (2011)
Min Temperature 40 °F 40 °F 32 °F (2011)
Degree Days  
Heating Degree Days 18    
Moisture  
Dew Point 41 °F    
Average Humidity 82    
Maximum Humidity 93    
Minimum Humidity 70    
Precipitation  
Precipitation 0.08 in 0.08 in - ()
Sea Level Pressure  
Sea Level Pressure 29.48 in    
Wind  
Wind Speed 18 mph ()    
Max Wind Speed 30 mph    
Max Gust Speed 43 mph    
Visibility 7.9 miles    
Events Rain    
Averages and records for this station are not official NWS values.
T = Trace of Precipitation, MM = Missing Value Source: Averaged Metar Reports

Daily Weather History Graph

Daily Weather History Graph

Search for Another Location

Airport:

Trip Planner

Search our weather history database for the weather conditions in past years. The results will help you decide how hot, cold, wet, or windy it might be!

Date:

Astronomy

Mar. 24, 2014 Rise Set
Actual Time 6:29 AM GMT 6:55 PM GMT
Civil Twilight 5:54 AM GMT 7:30 PM GMT
Nautical Twilight 5:13 AM GMT 8:11 PM GMT
Astronomical Twilight 4:30 AM GMT 8:54 PM GMT
Moon 2:31 AM GMT (3/24) 11:23 AM GMT (3/24)
Length of Visible Light 13h 35m
Length of Day
12h 26m
Last Quarter, 45% of the Moon is Illuminated
Mar 24
Last Quarter
Mar 30
New
Apr 7
First Quarter
Apr 15
Full
Apr 22
Last Quarter

Hourly Weather History & Observations

Time (GMT) Temp. Windchill Dew Point Humidity Pressure Visibility Wind Dir Wind Speed Gust Speed Precip Events Conditions
12:00 AM 41 °F - 36 °F 76% 29.82 in 16 mi ESE 11.2 mph - -   Clear
12:00 AM 41.0 °F 34.7 °F 35.6 °F 81% 29.80 in - ESE 10.4 mph - N/A   Clear
12:30 AM 41.0 °F 34.3 °F 35.6 °F 81% 29.80 in - ESE 11.5 mph - N/A   Clear
1:00 AM 41 °F - 36 °F 76% 29.79 in 16 mi ESE 11.2 mph - -  
1:00 AM 41.0 °F 34.3 °F 35.6 °F 81% 29.77 in - ESE 11.5 mph - N/A   Clear
1:30 AM 41.0 °F 34.3 °F 35.6 °F 81% 29.77 in - ESE 11.5 mph - N/A   Clear
2:00 AM 41 °F - 36 °F 77% 29.75 in 16 mi ESE 13.4 mph - -   Mostly Cloudy
2:00 AM 41.0 °F 33.9 °F 35.6 °F 81% 29.74 in - ESE 12.7 mph - N/A   Clear
2:30 AM 41.0 °F 33.5 °F 37.4 °F 87% 29.71 in 6.2 mi ESE 13.8 mph - N/A   Mostly Cloudy
3:00 AM 43 °F - 37 °F 72% 29.70 in 16 mi ESE 15.7 mph - -   Scattered Clouds
3:00 AM 42.8 °F 35.4 °F 37.4 °F 81% 29.68 in 6.2 mi ESE 15.0 mph - N/A   Mostly Cloudy
3:30 AM 42.8 °F 34.8 °F 37.4 °F 81% 29.65 in 6.2 mi ESE 17.3 mph - N/A   Mostly Cloudy
4:00 AM 44 °F - 38 °F 72% 29.66 in 16 mi ESE 17.9 mph - -   Partly Cloudy
4:00 AM 42.8 °F 34.8 °F 37.4 °F 81% 29.65 in 6.2 mi ESE 17.3 mph - N/A   Mostly Cloudy
4:30 AM 44.6 °F 36.9 °F 37.4 °F 76% 29.62 in 6.2 mi ESE 18.4 mph - N/A   Mostly Cloudy
5:00 AM 44 °F - 39 °F 77% 29.61 in 16 mi SE 20.1 mph - - Rain Light Rain
5:00 AM 44.6 °F 36.6 °F 39.2 °F 81% 29.59 in 6.2 mi SE 19.6 mph - N/A Rain Light Rain
5:30 AM 44.6 °F 35.5 °F 39.2 °F 81% 29.56 in 6.2 mi SE 25.3 mph 36.8 mph N/A   Mostly Cloudy
6:00 AM 45 °F - 39 °F 74% 29.57 in 16 mi SE 22.4 mph - - Rain Light Rain
6:00 AM 44.6 °F 35.9 °F 39.2 °F 81% 29.56 in 6.2 mi SE 23.0 mph 34.5 mph N/A   Mostly Cloudy
6:30 AM 44.6 °F 35.9 °F 39.2 °F 81% 29.53 in 6.2 mi SE 23.0 mph - N/A   Overcast
7:00 AM 45 °F - 40 °F 75% 29.54 in 16 mi SE 24.6 mph - - Rain Light Rain
7:00 AM 44.6 °F 35.7 °F 39.2 °F 81% 29.53 in 6.2 mi SE 24.2 mph - N/A   Overcast
7:30 AM 44.6 °F 35.5 °F 39.2 °F 81% 29.50 in 6.2 mi ESE 25.3 mph 39.1 mph N/A Rain Light Rain
8:00 AM 45 °F - 40 °F 77% 29.50 in 12 mi ESE 24.6 mph - - Rain Light Rain
8:00 AM 44.6 °F 35.5 °F 41.0 °F 87% 29.47 in 6.2 mi ESE 25.3 mph 42.6 mph N/A Rain Light Rain
8:30 AM 46.4 °F 37.5 °F 41.0 °F 81% 29.44 in 6.2 mi ESE 27.6 mph - N/A Rain Light Rain
9:00 AM 46 °F - 42 °F 79% 29.46 in 16 mi SE 26.8 mph - - Rain Light Rain
9:00 AM 46.4 °F 37.5 °F 41.0 °F 81% 29.44 in 6.2 mi SE 27.6 mph 42.6 mph N/A   Overcast
9:30 AM 46.4 °F 37.9 °F 42.8 °F 87% 29.42 in 6.2 mi SE 25.3 mph - N/A Rain Light Rain
10:00 AM 46 °F - 43 °F 84% 29.42 in 11 mi ESE 24.6 mph - - Rain Light Rain
10:00 AM 46.4 °F 37.9 °F 42.8 °F 87% 29.42 in 6.2 mi ESE 25.3 mph 39.1 mph N/A Rain Light Rain
10:30 AM 46.4 °F 37.4 °F 42.8 °F 87% 29.39 in 5.0 mi ESE 28.8 mph 39.1 mph N/A Rain Light Rain
11:00 AM 47 °F - 44 °F 85% 29.39 in 6 mi ESE 24.6 mph - - Rain Light Rain
11:00 AM 46.4 °F 37.9 °F 44.6 °F 93% 29.39 in 6.2 mi ESE 25.3 mph - N/A Rain Light Rain
11:30 AM 48.2 °F - 44.6 °F 87% 29.36 in 6.2 mi SE 25.3 mph 41.4 mph N/A Rain Light Rain
12:00 PM 48 °F - 45 °F 84% 29.35 in 10 mi SE 24.6 mph - - Rain Light Rain
12:00 PM 48.2 °F - 44.6 °F 87% 29.33 in 6.2 mi SE 25.3 mph 38.0 mph N/A Rain Light Rain
12:30 PM 48.2 °F - 46.4 °F 93% 29.33 in 6.2 mi SE 21.9 mph - N/A   Mostly Cloudy
1:00 PM 50 °F - 45 °F 77% 29.34 in 16 mi SE 22.4 mph - - Rain Light Rain
1:00 PM 50.0 °F - 44.6 °F 82% 29.33 in 6.2 mi SE 21.9 mph 34.5 mph N/A Rain Light Rain
1:30 PM 50.0 °F - 44.6 °F 82% 29.33 in 6.2 mi SE 20.7 mph 33.4 mph N/A   Mostly Cloudy
2:00 PM 52 °F - 46 °F 72% 29.31 in 16 mi SE 17.9 mph - - Rain Light Rain
2:00 PM 51.8 °F - 46.4 °F 82% 29.30 in 6.2 mi SE 18.4 mph - N/A   Mostly Cloudy
2:30 PM 51.8 °F - 46.4 °F 82% 29.27 in 6.2 mi SE 21.9 mph 33.4 mph N/A   Mostly Cloudy
3:00 PM 51 °F - 46 °F 77% 29.29 in 10 mi SSE 26.8 mph - - Rain Light Rain
3:00 PM 51.8 °F - 46.4 °F 82% 29.27 in 6.2 mi SSE 27.6 mph - N/A   Scattered Clouds
3:30 PM 53.6 °F - 46.4 °F 77% 29.24 in 6.2 mi SE 20.7 mph - N/A   Mostly Cloudy
4:00 PM 51 °F - 47 °F 81% 29.26 in 7 mi SSE 24.6 mph - - Rain Light Rain
4:00 PM 51.8 °F - 46.4 °F 82% 29.24 in 6.2 mi SSE 25.3 mph - N/A Rain Light Rain
4:30 PM 50.0 °F - 46.4 °F 87% 29.24 in 2.5 mi SSE 21.9 mph - N/A Rain Light Rain
5:00 PM 49 °F - 47 °F 89% 29.29 in 5 mi South 17.9 mph - - Rain Light Rain
5:00 PM 50.0 °F - 46.4 °F 87% 29.27 in 5.0 mi South 18.4 mph - N/A Rain Light Rain
5:30 PM 48.2 °F - 46.4 °F 93% 29.30 in 1.9 mi SW 19.6 mph 34.5 mph N/A Rain Light Rain
6:00 PM 47 °F - 45 °F 91% 29.35 in 2 mi SW 26.8 mph - - Rain Light Rain
6:00 PM 46.4 °F 37.5 °F 44.6 °F 93% 29.33 in 1.9 mi SW 27.6 mph - N/A Rain Light Rain
6:30 PM 46.4 °F 37.2 °F 44.6 °F 93% 29.36 in 1.2 mi WSW 29.9 mph 42.6 mph N/A Rain Light Rain
7:00 PM 46 °F - 43 °F 84% 29.41 in 5 mi WSW 26.8 mph - - Rain Light Rain
7:00 PM 46.4 °F 37.5 °F 42.8 °F 87% 29.39 in 5.0 mi WSW 27.6 mph - N/A Rain Light Rain
7:30 PM 46.4 °F 37.5 °F 42.8 °F 87% 29.42 in 6.2 mi WSW 27.6 mph - N/A Rain Light Rain
8:00 PM 46 °F - 42 °F 80% 29.46 in 6 mi WSW 26.8 mph - - Rain Light Rain
8:00 PM 46.4 °F 37.7 °F 42.8 °F 87% 29.44 in 6.2 mi WSW 26.5 mph 39.1 mph N/A   Mostly Cloudy
8:30 PM 46.4 °F 37.9 °F 41.0 °F 81% 29.47 in 6.2 mi WSW 25.3 mph - N/A Rain Light Rain
9:00 PM 46 °F - 40 °F 71% 29.50 in 10 mi WSW 22.4 mph - - Rain Light Rain
9:00 PM 46.4 °F 38.3 °F 39.2 °F 76% 29.47 in 6.2 mi WSW 23.0 mph - N/A   Mostly Cloudy
9:30 PM 46.4 °F 38.3 °F 39.2 °F 76% 29.50 in 6.2 mi WSW 23.0 mph - N/A   Scattered Clouds
10:00 PM 45 °F - 38 °F 70% 29.53 in 12 mi WSW 17.9 mph - -   Scattered Clouds
10:00 PM 44.6 °F 37.2 °F 39.2 °F 81% 29.50 in 6.2 mi WSW 17.3 mph - N/A   Partly Cloudy
10:30 PM 44.6 °F 36.4 °F 39.2 °F 81% 29.50 in 6.2 mi WSW 20.7 mph - N/A   Scattered Clouds
11:00 PM 44 °F - 38 °F 71% 29.54 in 11 mi WSW 17.9 mph - - Rain Light Rain Showers
11:00 PM 44.6 °F 37.2 °F 37.4 °F 76% 29.53 in 6.2 mi WSW 17.3 mph - N/A   Partly Cloudy
11:30 PM 44.6 °F 38.8 °F 39.2 °F 81% 29.53 in 6.2 mi WSW 11.5 mph - N/A   Partly Cloudy